Powrót do katalogu

STARLINK-30997

AktywnyŁącznośćVLEO
NORAD 58482·PAYLOAD·🇺🇸 United States

Wystrzelony Dec 3, 2023 z Cape Canaveral Space Force Station

Loading…

Następne Przeloty (najbliższe 24 godziny)

TLE

ŚwieżeSource: CelesTrak SupGP

Epoka: Sep 15, 2026, 02:03 UTC

1 58482C 23186K   26258.08590278 -.00004897  00000+0 -17737-3 0  2584
2 58482  43.0007  74.0824 0001652 275.4521 349.5311 15.27577736    15

Śledź STARLINK-30997 w czasie rzeczywistym z AllMySat

Download on the App Store